Location: Gimeaux
(43.6655°N, 4.5732°E)
Time: 18:01:55
(UTC+00:00)

Daily predictions for brighter satellites

Satellite Brightness Start Highest point End
(mag) Time Altitude Azimuth Time Altitude Azimuth Time Altitude Azimuth
Okean O Rocket 1.6 17:01:31 10° SSE 17:05:53 81° ENE 17:10:15 10° NNW
Cosmos 1331 Rocket 4.0 17:02:03 10° SSW 17:07:12 87° ESE 17:12:23 10° NNE
USA 308 4.2 17:04:34 10° NW 17:08:11 26° NNE 17:11:48 10° ENE
Cosmos 1408 4.5 17:08:46 10° NE 17:10:09 12° ENE 17:11:33 10° E
Timation 2 Rocket 4.2 17:04:02 10° NNW 17:10:39 68° ENE 17:17:26 10° SE
Meteor 2-14 Rocket 4.5 17:05:46 10° N 17:11:57 82° E 17:18:03 10° S
NOAA 12 4.1 17:06:52 10° SSE 17:12:09 87° ENE 17:17:31 10° NNW
Cosmos 1726 Rocket 3.6 17:08:02 10° S 17:12:17 59° E 17:16:37 10° NNE
Cosmos 2227 Rocket 2.7 17:09:15 10° N 17:14:31 37° ENE 17:19:43 10° ESE
Helios 1A Rocket 4.1 17:11:42 10° ESE 17:14:57 23° ENE 17:18:11 10° NNE
Cosmos 2228 3.0 17:11:09 10° S 17:15:23 87° E 17:19:42 10° N
Cosmos 1892 3.9 17:13:11 10° NNE 17:16:14 21° ENE 17:19:16 10° SE
ATLAS 2AS CENTAUR R/B 4.3 17:11:08 10° NNW 17:16:35 20° NNE 17:21:46 10° ENE
Aureole 3 Rocket 3.6 17:13:17 10° SSE 17:16:59 39° E 17:21:57 10° NNE
Cosmos 1400 Rocket 3.3 17:13:22 10° SSE 17:17:13 40° E 17:21:04 10° NNE
Cosmos 1758 Rocket 4.1 17:13:24 10° NNW 17:17:46 64° W 17:22:03 10° S
Cosmos 292 Rocket 3.8 17:14:47 10° SSW 17:19:34 88° ESE 17:24:26 10° NNE
IRS-1C Rocket 4.4 17:16:24 10° SE 17:21:22 44° ENE 17:26:22 10° N
Cosmos 1553 Rocket 4.4 17:18:00 10° SSE 17:23:53 42° E 17:29:43 10° NNE
Cosmos 968 Rocket 4.1 17:19:24 10° N 17:24:11 35° ENE 17:28:54 10° SE
Cosmos 1300 2.6 17:21:46 10° S 17:25:34 87° E 17:29:24 10° N
Atlas Centaur 2 4.4 17:19:34 10° SW 17:26:14 28° SSE 17:33:06 10° ESE
FALCON 9 DEB 3.7 17:23:23 10° WSW 17:26:32 49° NNW 17:29:34 11° NE
Milstar 3 4.4 17:21:49 10° SW 17:27:23 23° S 17:32:27 10° SE
Lacrosse 5 3.8 17:24:36 10° NW 17:28:03 18° N 17:31:30 10° NE
Cosmos 1606 Rocket 3.8 17:23:59 10° SSW 17:28:19 72° W 17:32:45 10° N
CZ-4 R/B 2.4 17:25:34 10° ESE 17:28:43 24° ENE 17:31:50 10° NNE
Cosmos 1697 Rocket 3.5 17:24:03 10° SSE 17:28:45 28° ESE 17:33:27 10° NE
FALCON 9 DEB 3.8 17:26:34 10° WSW 17:29:39 43° NNW 17:32:31 11° NE
SMAP 3.9 17:25:12 10° S 17:29:46 57° W 17:34:22 10° NNW
Cosmos 2058 3.9 17:29:54 10° NNE 17:33:19 25° ENE 17:36:43 10° SE
Cosmos 1825 3.8 17:32:20 10° NNE 17:34:21 15° ENE 17:34:21 15° ENE
PSLV R/B 4.4 17:31:12 10° NNE 17:35:09 40° E 17:39:03 10° S
SAR-Lupe-4 3.5 17:31:53 10° NNE 17:35:27 67° ESE 17:39:00 10° S
CZ-2D R/B 3.7 17:33:09 10° SE 17:36:41 38° ENE 17:40:14 10° N
Cosmos 1302 Rocket 4.0 17:33:44 10° SSW 17:38:59 86° ESE 17:44:19 10° NNE
SKYMED 2 3.6 17:34:46 10° NNE 17:39:04 57° E 17:43:20 10° S
ERS-2 2.9 17:35:49 10° N 17:39:23 55° WNW 17:42:56 10° SSW
NOAA 11 4.2 17:34:29 10° SSE 17:39:57 87° WSW 17:45:25 10° NNW
SL-4 R/B 3.2 17:37:49 10° NW 17:40:47 24° N 17:42:47 16° NE
Okean-O 3.1 17:37:09 10° SE 17:41:17 39° ENE 17:45:24 10° N
ADEOS Rocket 4.5 17:35:25 10° N 17:41:29 44° WNW 17:48:08 10° SW
USA 281 3.9 17:35:57 10° S 17:42:24 60° WSW 17:48:54 10° NNW
FALCON 9 DEB 4.1 17:39:59 10° W 17:43:03 37° NNW 17:45:25 15° NE
Cosmos 1346 Rocket 3.5 17:39:27 10° N 17:43:04 32° ENE 17:46:40 10° SE
SL-08 R/B 4.4 17:40:23 10° N 17:46:30 62° E 17:52:31 10° SSE
Cosmos 1340 2.5 17:42:53 10° N 17:46:41 74° E 17:50:26 10° SSE
Cosmos 1486 Rocket 4.0 17:44:06 10° NNW 17:49:24 59° ENE 17:54:37 10° SSE
Cosmos 1315 Rocket 3.5 17:46:14 10° SSE 17:49:44 31° E 17:53:18 10° NNE
Cosmos 1745 Rocket 4.2 17:45:14 10° N 17:51:21 49° ENE 17:57:27 10° SSE
Cosmos 1980 Rocket 3.2 17:47:40 10° SSE 17:51:58 23° E 17:53:26 21° E
SAR-Lupe-1 4.2 17:49:44 10° N 17:53:20 77° WNW 17:56:55 10° SSW
FALCON 9 DEB 4.4 17:50:46 10° W 17:53:41 31° NNW 17:55:34 17° NNE
USA 305 3.6 17:49:49 10° NW 17:53:52 39° NNE 17:55:45 25° ENE
Cosmos 1689 Rocket 1.8 17:51:07 10° NNE 17:54:00 83° E 17:56:53 10° SSW
Cosmos 2297 Rocket 2.2 17:48:40 10° NNW 17:54:22 88° ENE 18:00:02 10° SSE
In-Cosmos 22 Rocket 4.0 17:51:06 10° N 17:56:31 83° E 18:02:00 10° SSE
CZ-4B R/B 3.2 17:53:51 10° N 17:56:44 31° WNW 17:59:33 10° SW
Cosmos 1503 Rocket 4.4 17:54:23 10° N 17:59:22 42° ENE 18:03:10 16° SE
Aureole 3 3.4 17:56:18 10° SSW 17:59:24 55° W 18:02:19 10° N
USA 306 3.5 17:56:17 10° NW 18:00:22 41° NNE 18:01:57 29° ENE
Cosmos 2058 Rocket 3.6 17:59:35 10° SSW 18:04:01 62° W 18:08:31 10° N
CZ-2C R/B 3.3 18:01:45 10° SSE 18:07:27 60° ENE 18:12:59 10° N
Cosmos 2360 4.4 18:05:59 10° S 18:11:27 48° ESE 18:15:32 18° NE
Cosmos 1354 Rocket 4.2 18:06:30 10° N 18:11:34 46° ENE 18:14:15 25° ESE
Cosmos 1455 2.1 18:09:45 10° S 18:13:27 60° E 18:17:14 10° NNE
CZ-4C R/B 4.2 18:09:45 10° NNW 18:14:44 21° NNE 18:16:59 18° NE
Cosmos 1992 Rocket 3.9 18:11:35 10° SSW 18:16:46 75° ESE 18:21:58 10° NNE
Meteor 2-10 Rocket 3.4 18:13:46 10° S 18:19:06 84° E 18:24:15 10° NNE
Cosmos 1709 Rocket 4.2 18:14:50 10° N 18:20:59 47° ENE 18:27:05 10° SSE
Cosmos 1076 Rocket 3.4 18:18:21 10° N 18:22:35 62° E 18:25:00 24° SSE
Cosmos 2278 4.0 18:17:53 10° S 18:23:14 44° ESE 18:24:51 35° ENE
Cosmos 2219 4.1 18:20:42 10° NW 18:26:14 49° WSW 18:31:45 10° S
COSMO-SKYMED 1 3.7 18:22:56 10° N 18:27:04 43° WNW 18:31:11 10° SW
Geosat 3.9 18:29:49 29° NE 18:32:25 68° ESE 18:37:25 10° SSW
H-2A R/B 2.0 18:28:37 10° SSE 18:33:59 72° ENE 18:39:26 10° N
Cosmos 883 Rocket 4.4 18:28:13 10° S 18:34:16 64° E 18:40:20 10° NNE
Cosmos 2082 3.6 18:28:35 10° NNW 18:34:22 84° ENE 18:38:04 23° SSE
SJ-11-01 4.1 18:34:08 28° SSE 18:36:35 76° ENE 18:41:17 10° N
ARGOS 3.2 18:36:01 42° SE 18:37:34 58° ENE 18:42:54 10° N
YAOGAN 1 2.9 18:35:03 10° S 18:39:20 65° WSW 18:43:39 10° NNW
S3M 4.1 18:33:57 10° SSW 18:40:03 73° W 18:46:14 10° N
CRYOSAT 2 4.3 18:36:47 10° N 18:41:41 86° W 18:46:33 10° S
Cosmos 2315 Rocket 3.9 18:35:39 10° S 18:41:42 60° E 18:47:48 10° NNE
GEOS 3 Rocket 3.7 18:41:31 53° E 18:42:26 62° NE 18:47:45 10° NNW
SeaSat 1 2.9 18:43:27 44° NE 18:43:27 44° NE 18:47:37 10° NNW
USA 307 2.9 18:39:32 10° NW 18:43:36 72° N 18:43:36 72° N
Cosmos 1408 3.6 18:41:55 10° NNW 18:45:26 46° W 18:48:58 10° SSW
Cosmos 1812 Rocket 3.6 18:42:08 10° SSW 18:46:31 76° W 18:50:55 10° N
Cosmos 2369 3.7 18:41:31 10° SSW 18:47:14 81° WNW 18:51:18 20° NNE
NOSS 3-4 (A) 4.1 18:40:38 10° NNW 18:47:21 48° NE 18:48:36 44° ENE
NOSS 3-4 (C) 4.1 18:40:45 10° NNW 18:47:26 47° NE 18:48:40 44° ENE
USA 308 3.0 18:44:28 10° NW 18:48:20 70° NNW 18:48:20 70° NNW
DEBRIS 4.5 18:28:42 10° WSW 18:49:41 80° NNW 18:51:52 43° NE
NOSS 3-3 (A) 4.2 18:49:28 10° SW 18:55:15 66° NW 18:59:03 26° NNE
NOSS 3-3 (C) 4.2 18:49:34 10° SW 18:55:22 66° NW 18:59:06 26° NNE
USA 215 4.0 18:54:35 34° NE 18:55:45 37° NNE 19:01:36 10° NW
CSL-04 Rocket 3.8 18:51:45 10° S 18:57:17 74° WSW 19:02:50 10° NNW
Cosmos 2227 Rocket 3.7 18:53:25 10° NW 18:58:30 35° WSW 19:03:33 10° SSW
MOS 1 Rocket 3.6 18:54:14 10° N 18:58:55 67° WNW 19:03:53 10° SSW
Cosmos 2263 Rocket 3.1 18:57:25 10° NNW 19:01:09 34° NNE 19:01:09 34° NNE
CZ-4 R/B 3.4 19:00:22 10° SSW 19:03:39 26° W 19:06:56 10° NW
ATLAS 2AS CENTAUR R/B 3.0 19:02:11 10° NNW 19:09:29 51° NE 19:09:29 51° NE
BREEZE-M R/B 4.1 19:04:58 10° WNW 19:09:43 72° NNE 19:10:34 65° ENE
Cosmos 1825 3.9 19:06:44 10° NNW 19:09:13 31° NW 19:09:13 31° NW
Cosmos 1697 Rocket 3.7 19:07:06 10° SW 19:12:27 45° WNW 19:16:32 17° N
Lacrosse 5 3.6 19:08:29 10° NW 19:11:26 22° N 19:11:26 22° N
Atlas Centaur 2 4.0 19:07:49 10° WSW 19:15:04 32° S 19:16:23 31° SSE
Cosmos 44 Rocket 3.9 19:13:04 10° SW 19:17:10 53° W 19:17:10 53° W
SL-4 R/B 4.3 19:17:14 10° NW 19:18:22 19° NW 19:18:22 19° NW
Cosmos 1980 Rocket 2.8 19:30:03 10° SW 19:35:17 53° WNW 19:35:17 53° WNW
CZ-4C R/B 3.8 19:57:43 10° NNW 20:02:10 40° N 20:02:10 40° N
